Campo, CA

1:43 AM PDT on May 28, 2017 (GMT -0700)
Campo

Weather History for KCZZ - October, 2012

Change the Weather History Date:

Monday, October 29, 2012

  Actual Average Record
Temperature  
Mean Temperature 61 °F 58 °F  
Max Temperature 85 °F 76 °F 90 °F (1990)
Min Temperature 37 °F 40 °F 22 °F (1971)
Degree Days  
Heating Degree Days 4 8  
Month to date heating degree days 119 145  
Since 1 July heating degree days 128 195  
Cooling Degree Days 0 0  
Month to date cooling degree days 33 27  
Year to date cooling degree days 942 838  
Growing Degree Days 12 (Base 50)    
Moisture  
Dew Point 19 °F    
Average Humidity 23    
Maximum Humidity 39    
Minimum Humidity 6    
Precipitation  
Precipitation 0.00 in 0.03 in 1.13 in (1974)
Month to date precipitation 0.34 0.75  
Year to date precipitation 7.81 12.26  
Since 1 July precipitation 1.76  
Snow  
Snow 0.00 in - - ()
Month to date snowfall 0.0  
Year to date snowfall 0.0  
Snow Depth 0.00 in    
Sea Level Pressure  
Sea Level Pressure 30.02 in    
Wind  
Wind Speed 8 mph (NE)    
Max Wind Speed 18 mph    
Max Gust Speed 26 mph    
T = Trace of Precipitation, MM = Missing Value Source: NWS Daily Summary

Daily Weather History Graph

Daily Weather History Graph

Search for Another Location

Airport or City:

Trip Planner

Search our weather history database for the weather conditions in past years. The results will help you decide how hot, cold, wet, or windy it might be!

Date:

Astronomy

Oct. 29, 2012 Rise Set
Actual Time 7:01 AM PDT 5:57 PM PDT
Civil Twilight 6:36 AM PDT 6:22 PM PDT
Nautical Twilight 6:07 AM PDT 6:51 PM PDT
Astronomical Twilight 5:38 AM PDT 7:20 PM PDT
Moon 5:54 PM PDT (10/29) 6:54 AM PDT (10/29)
Length of Visible Light 11h 46m
Length of Day
10h 55m
Full, 100% of the Moon is Illuminated
Oct 29
Full
Oct 29
Full
Nov 6
Last Quarter
Nov 13
New
Nov 20
First Quarter

Hourly Weather History & Observations

Time (PDT) Temp. Windchill Dew Point Humidity Pressure Visibility Wind Dir Wind Speed Gust Speed Precip Events Conditions
12:52 AM 44.1 °F 40.1 °F 19.0 °F 37% 30.01 in - NE 6.9 mph - N/A   Unknown
1:52 AM 43.0 °F 38.8 °F 19.0 °F 38% 30.01 in - NE 6.9 mph - N/A   Unknown
2:52 AM 42.1 °F 37.1 °F 18.0 °F 38% 30.01 in - ENE 8.1 mph - N/A   Unknown
3:52 AM 41.0 °F 36.4 °F 18.0 °F 40% 30.00 in - NE 6.9 mph - N/A   Unknown
4:52 AM 42.1 °F 37.7 °F 17.1 °F 37% 30.00 in - NE 6.9 mph - N/A   Unknown
5:52 AM 41.0 °F 36.4 °F 18.0 °F 40% 30.02 in - NE 6.9 mph - N/A   Unknown
6:52 AM 43.0 °F 39.5 °F 18.0 °F 37% 30.04 in - NNE 5.8 mph - N/A   Unknown
7:52 AM 46.9 °F - 19.0 °F 33% 30.06 in - ENE 5.8 mph - N/A   Unknown
8:52 AM 62.1 °F - 21.9 °F 21% 30.06 in - NNE 3.5 mph - N/A   Unknown
9:52 AM 72.0 °F - 18.0 °F 13% 30.05 in - Calm Calm - N/A   Unknown
10:52 AM 80.1 °F - 15.1 °F 9% 30.03 in - Variable 3.5 mph - N/A   Unknown
11:52 AM 84.0 °F - 10.0 °F 6% 30.00 in - SSW 9.2 mph - N/A   Unknown
12:52 PM 82.9 °F - 12.0 °F 7% 29.98 in - SW 15.0 mph 21.9 mph N/A   Unknown
1:52 PM 82.0 °F - 16.0 °F 8% 29.98 in - SW 13.8 mph - N/A   Unknown
2:52 PM 82.9 °F - 15.1 °F 8% 29.96 in - Variable 6.9 mph 18.4 mph N/A   Unknown
3:52 PM 81.0 °F - 19.0 °F 10% 29.97 in - SSW 13.8 mph - N/A   Unknown
4:52 PM 78.1 °F - 21.9 °F 12% 29.98 in - SW 8.1 mph - N/A   Unknown
5:52 PM 71.1 °F - 24.1 °F 17% 30.00 in - SW 9.2 mph - N/A   Unknown
6:52 PM 61.0 °F - 25.0 °F 25% 30.03 in - Calm Calm - N/A   Unknown
7:52 PM 54.0 °F - 24.1 °F 31% 30.05 in - NE 6.9 mph - N/A   Unknown
8:52 PM 53.1 °F - 24.1 °F 32% 30.04 in - NE 5.8 mph - N/A   Unknown
9:52 PM 46.9 °F - 23.0 °F 39% 30.04 in - NE 5.8 mph - N/A   Unknown
10:52 PM 48.9 °F - 24.1 °F 38% 30.03 in - NE 5.8 mph - N/A   Unknown
11:52 PM 46.9 °F - 24.1 °F 41% 30.02 in - NE 6.9 mph - N/A   Unknown